Regional Weather Roundup
Issued by NWS New Orleans/Baton Rouge, LA

Home | Current Version | Previous Version | Text Only | Print | Product List | Glossary On
Versions: 1 2 3 4 5 6 7 8 9 10 11 12 13 14 15 16 17 18 19 20 21 22 23 24 25 26 27
000
ASUS44 KLIX 261507
RWRLIX
NEW ORLEANS REGIONAL WEATHER ROUNDUP
NATIONAL WEATHER SERVICE NEW ORLEANS LA
1000 AM CDT SAT MAY 26 2018

NOTE: "FAIR" INDICATES FEW OR NO CLOUDS BELOW 12,000 FEET WITH NO
      SIGNIFICANT WEATHER AND/OR OBSTRUCTIONS TO VISIBILITY.
      SKY/WX - SKY CONDITION AND SIGNIFICANT WEATHER.
      TMP - AIR TEMPERATURE.     DP    - DEWPOINT TEMPERATURE.
      RH  - RELATIVE HUMIDITY.   PRES  - PRESSURE.
      HI  - HEAT INDEX.          WCI   - WIND CHILL INDEX.

*  THESE STATIONS ARE NOT NWS OR FAA STATIONS AND ARE NOT UNDER
   NWS QUALITY CONTROL.

LAZ038-040-048-061>063-065>067-069-261600-
SOUTHEAST LOUISIANA

CITY           SKY/WX    TMP DP  RH WIND       PRES   REMARKS
N.O. INTL ARPT FAIR      82  73  74 CALM      29.91S
N.O. LAKEFRONT FAIR      83  73  72 NE7       29.92S
N.O. DOWNTOWN* FAIR      83  68  60 CALM      29.92F
RESERVE*         N/A     89  74  62 CALM      29.91S HX  98
SLIDELL        PTSUNNY   83  72  69 N7        29.91F
BATON ROUGE    PTSUNNY   82  73  74 E5        29.89F
BOOTHVILLE     FAIR      84  73  69 VRB5      29.92S
BELLE CHASSE   PTSUNNY   84  73  69 NE5       29.91S
BOGALUSA*      FAIR      79  73  81 CALM      29.94S
GALLIANO*      FAIR      82  70  65 N5        29.91S THUNDER
NEW ROADS*     PTSUNNY   84  70  63 W3        29.91R
GONZALES*      FAIR      82  71  68 CALM      29.89F
HAMMOND*       FAIR      81  72  74 CALM      29.92S
HOUMA*         MOSUNNY   82  72  69 E3        29.91S
PORT FOURCHON* MOSUNNY   82  72  69 NE6       29.92S

$$

MSZ070-080>082-261600-
SOUTHERN MISSISSIPPI

CITY           SKY/WX    TMP DP  RH WIND       PRES   REMARKS
MCCOMB         FAIR      77  71  82 S5        29.92F
GULFPORT       FAIR      82  71  69 NE8       29.92R
BILOXI         FAIR      77  73  88 NE3       29.92S
PASCAGOULA     LGT RAIN  79  73  82 MISG      29.93R
STENNIS ARPT*  PTSUNNY   79  73  83 VRB5      29.92F

$$

COASTAL OBSERVATIONS
LAKE AND NEARSHORE STATIONS

STATION/POSITION TIME  SKY/WX   TEMP    WIND        PRES    WAVE
                                AIR SEA DIR/SP/G            HT/PER
                 (UTC)          (F)     (DEG/KT/KT) (MB)    (FT/S)
WAVELAND YACHT   1448            79 83   60/  7/  8 1013.0
GRAND ISLE       1448            82 85   10/  4/  5 1012.9
SOUTHWEST PASS   1448            84 78   50/  7/  9 1013.4
NEW CANAL        1448            81 84   30/  4/  6 1013.0
SHELL BEACH      1448            79 87   30/  7/  9 1013.2

OFFSHORE STATIONS

STATION/POSITION TIME  SKY/WX   TEMP    WIND        PRES    WAVE
                                AIR SEA DIR/SP/G            HT/PER
                 (UTC)          (F)     (DEG/KT/KT) (MB)    (FT/S)
64 S DAUPHIN ISL 1450               86   40/  8/ 12 1012.9    2/ 7

$$





USA.gov is the U.S. government's official web portal to all federal, state and local government web resources and services.